Location: Antioch Baptist Church
(32.6696°N, 85.7327°W)
Time: 21:07:10
(UTC+00:00)

SL-16 R/B - Pass Details

Date: 14 July 2020
Orbit: 840 x 850 km, 71.0° (Epoch: 13 August)

Event Time Altitude Azimuth Distance (km) Brightness Sun altitude
Exits shadow 02:09:49 20° 113° (ESE) 1,832 3.4 -14.6°
Maximum altitude 02:10:41 21° 100° (E) 1,800 3.4 -14.8°
Drops below altitude 10° 02:14:49 10° 53° (NE) 2,469 4.5 -15.5°
Sets 02:17:49 0° 38° (NE) 3,410 5.4 -15.9°
